Time,TemperatureF,DewpointF,PressureIn,WindDirection,WindDirectionDegrees,WindSpeedMPH,WindSpeedGustMPH,Humidity,HourlyPrecipIn,Conditions,Clouds,dailyrainin,SolarRadiationWatts/m^2,SoftwareType,DateUTC
2013-05-23 00:01:00,67.4,65.6,29.70,WSW,243,0.0,3.0,94,0.00,,,0.12,0.00,VWS V14.00,2013-05-23 04:01:00,
2013-05-23 00:06:00,67.6,65.8,29.70,WSW,243,0.0,0.0,94,0.00,,,0.00,0.00,VWS V14.00,2013-05-23 04:06:00,
2013-05-23 00:11:00,67.7,65.9,29.69,WSW,243,0.0,1.0,94,0.00,,,0.00,0.00,VWS V14.00,2013-05-23 04:11:00,
2013-05-23 00:16:00,67.8,66.0,29.69,WSW,243,0.0,0.0,94,0.00,,,0.00,0.00,VWS V14.00,2013-05-23 04:16:00,
2013-05-23 00:21:00,67.7,65.9,29.69,WSW,243,0.0,0.0,94,0.00,,,0.00,0.00,VWS V14.00,2013-05-23 04:21:00,
2013-05-23 00:26:00,67.7,65.9,29.70,WSW,243,0.0,0.0,94,0.00,,,0.00,0.00,VWS V14.00,2013-05-23 04:26:00,
2013-05-23 00:31:00,67.6,65.8,29.70,WSW,243,0.0,0.0,94,0.00,,,0.00,0.00,VWS V14.00,2013-05-23 04:31:00,
2013-05-23 00:36:00,67.6,65.8,29.70,WSW,243,2.0,3.0,94,0.00,,,0.00,0.00,VWS V14.00,2013-05-23 04:36:00,
2013-05-23 00:41:00,67.6,65.8,29.72,SW,219,10.0,10.0,94,0.00,,,0.00,0.00,VWS V14.00,2013-05-23 04:41:00,
2013-05-23 00:46:00,68.2,66.4,29.72,West,259,21.0,21.0,94,0.13,,,0.13,0.00,VWS V14.00,2013-05-23 04:46:00,
2013-05-23 00:51:00,67.5,65.4,29.72,WSW,253,13.0,13.0,93,0.21,,,0.21,0.00,VWS V14.00,2013-05-23 04:51:00,
2013-05-23 00:56:00,67.2,65.1,29.71,WSW,257,12.0,14.0,93,0.23,,,0.23,0.00,VWS V14.00,2013-05-23 04:56:00,
2013-05-23 01:01:00,67.2,65.1,29.70,WSW,258,0.0,3.0,93,0.25,,,0.25,0.00,VWS V14.00,2013-05-23 05:01:00,
2013-05-23 01:06:00,67.1,65.0,29.70,SW,225,11.0,13.0,93,0.26,,,0.26,0.00,VWS V14.00,2013-05-23 05:06:00,
2013-05-23 01:11:00,66.9,64.8,29.71,West,259,6.0,6.0,93,0.26,,,0.26,0.00,VWS V14.00,2013-05-23 05:11:00,
2013-05-23 01:16:00,66.8,64.7,29.70,West,274,2.0,2.0,93,0.26,,,0.26,0.00,VWS V14.00,2013-05-23 05:16:00,
2013-05-23 01:21:00,66.6,64.5,29.71,WSW,254,0.0,0.0,93,0.26,,,0.26,0.00,VWS V14.00,2013-05-23 05:21:00,
2013-05-23 01:26:00,66.5,64.4,29.70,WSW,254,1.0,1.0,93,0.26,,,0.26,0.00,VWS V14.00,2013-05-23 05:26:00,
2013-05-23 01:31:00,66.4,64.3,29.70,WNW,282,4.0,5.0,93,0.26,,,0.26,0.00,VWS V14.00,2013-05-23 05:31:00,
2013-05-23 01:36:00,66.3,64.2,29.70,West,275,1.0,2.0,93,0.26,,,0.26,0.00,VWS V14.00,2013-05-23 05:36:00,
2013-05-23 01:41:00,66.1,64.0,29.71,West,275,0.0,0.0,93,0.26,,,0.26,0.00,VWS V14.00,2013-05-23 05:41:00,
2013-05-23 01:46:00,66.0,63.9,29.70,West,275,0.0,0.0,93,0.14,,,0.26,0.00,VWS V14.00,2013-05-23 05:46:00,
2013-05-23 01:51:00,65.8,63.7,29.70,West,275,3.0,3.0,93,0.05,,,0.26,0.00,VWS V14.00,2013-05-23 05:51:00,
2013-05-23 01:56:00,65.6,63.5,29.70,WNW,282,1.0,2.0,93,0.03,,,0.26,0.00,VWS V14.00,2013-05-23 05:56:00,
2013-05-23 02:01:00,65.4,63.3,29.69,WNW,301,0.0,0.0,93,0.01,,,0.26,0.00,VWS V14.00,2013-05-23 06:01:00,
2013-05-23 02:06:00,65.3,63.2,29.69,WNW,301,0.0,0.0,93,0.00,,,0.26,0.00,VWS V14.00,2013-05-23 06:06:00,
2013-05-23 02:11:00,65.2,63.1,29.69,WSW,246,0.0,0.0,93,0.00,,,0.26,0.00,VWS V14.00,2013-05-23 06:11:00,
2013-05-23 02:16:00,65.1,63.0,29.69,WSW,244,0.0,0.0,93,0.00,,,0.26,0.00,VWS V14.00,2013-05-23 06:16:00,
2013-05-23 02:21:00,65.0,62.9,29.69,SSE,165,4.0,4.0,93,0.00,,,0.26,0.00,VWS V14.00,2013-05-23 06:21:00,
2013-05-23 02:26:00,65.0,62.9,29.69,South,172,0.0,0.0,93,0.00,,,0.26,0.00,VWS V14.00,2013-05-23 06:26:00,
2013-05-23 02:31:00,65.0,62.9,29.68,South,172,1.0,1.0,93,0.00,,,0.26,0.00,VWS V14.00,2013-05-23 06:31:00,
2013-05-23 02:36:00,64.9,62.8,29.68,South,172,0.0,0.0,93,0.00,,,0.26,0.00,VWS V14.00,2013-05-23 06:36:00,
2013-05-23 02:41:00,64.9,62.8,29.68,South,172,0.0,0.0,93,0.00,,,0.26,0.00,VWS V14.00,2013-05-23 06:41:00,
2013-05-23 02:46:00,64.8,62.7,29.67,South,172,0.0,0.0,93,0.00,,,0.26,0.00,VWS V14.00,2013-05-23 06:46:00,
2013-05-23 02:51:00,64.7,62.6,29.68,South,172,0.0,0.0,93,0.00,,,0.26,0.00,VWS V14.00,2013-05-23 06:51:00,
2013-05-23 02:56:00,64.7,62.6,29.68,South,173,0.0,0.0,93,0.00,,,0.26,0.00,VWS V14.00,2013-05-23 06:56:00,
2013-05-23 03:01:00,64.6,62.5,29.68,South,172,0.0,0.0,93,0.00,,,0.26,0.00,VWS V14.00,2013-05-23 07:01:00,
2013-05-23 03:06:00,64.5,62.4,29.67,South,173,0.0,0.0,93,0.00,,,0.26,0.00,VWS V14.00,2013-05-23 07:06:00,
2013-05-23 03:11:00,64.5,62.4,29.67,South,172,0.0,0.0,93,0.00,,,0.26,0.00,VWS V14.00,2013-05-23 07:11:00,
2013-05-23 03:16:00,64.5,62.4,29.67,South,172,0.0,0.0,93,0.00,,,0.26,0.00,VWS V14.00,2013-05-23 07:16:00,
2013-05-23 03:21:00,64.4,62.3,29.67,South,172,0.0,0.0,93,0.00,,,0.26,0.00,VWS V14.00,2013-05-23 07:21:00,
2013-05-23 03:26:00,64.4,62.3,29.68,South,172,0.0,0.0,93,0.00,,,0.26,0.00,VWS V14.00,2013-05-23 07:26:00,
2013-05-23 03:31:00,64.5,62.4,29.68,South,172,0.0,0.0,93,0.00,,,0.26,0.00,VWS V14.00,2013-05-23 07:31:00,
2013-05-23 03:36:00,64.6,62.8,29.68,South,172,0.0,0.0,94,0.00,,,0.26,0.00,VWS V14.00,2013-05-23 07:36:00,
2013-05-23 03:41:00,64.6,62.8,29.68,South,172,0.0,0.0,94,0.00,,,0.26,0.00,VWS V14.00,2013-05-23 07:41:00,
2013-05-23 03:46:00,64.6,62.8,29.68,South,172,0.0,0.0,94,0.00,,,0.26,0.00,VWS V14.00,2013-05-23 07:46:00,
2013-05-23 03:51:00,64.6,62.8,29.68,South,172,0.0,0.0,94,0.00,,,0.26,0.00,VWS V14.00,2013-05-23 07:51:00,
2013-05-23 03:56:00,64.5,62.4,29.68,South,172,0.0,0.0,93,0.00,,,0.26,0.00,VWS V14.00,2013-05-23 07:56:00,
2013-05-23 04:01:00,64.4,62.3,29.68,South,172,0.0,0.0,93,0.00,,,0.26,0.00,VWS V14.00,2013-05-23 08:01:00,
2013-05-23 04:06:00,64.3,62.5,29.68,South,172,0.0,1.0,94,0.00,,,0.26,0.00,VWS V14.00,2013-05-23 08:06:00,
2013-05-23 04:11:00,64.2,62.4,29.68,South,172,0.0,0.0,94,0.00,,,0.26,0.00,VWS V14.00,2013-05-23 08:11:00,
2013-05-23 04:16:00,64.1,62.3,29.68,South,172,0.0,0.0,94,0.00,,,0.26,0.00,VWS V14.00,2013-05-23 08:16:00,
2013-05-23 04:21:00,64.0,62.2,29.68,South,172,0.0,1.0,94,0.00,,,0.26,0.00,VWS V14.00,2013-05-23 08:21:00,
2013-05-23 04:26:00,64.0,62.2,29.68,South,172,0.0,0.0,94,0.00,,,0.26,0.00,VWS V14.00,2013-05-23 08:26:00,
2013-05-23 04:31:00,64.0,62.2,29.68,South,172,0.0,1.0,94,0.00,,,0.26,0.00,VWS V14.00,2013-05-23 08:31:00,
2013-05-23 04:36:00,64.0,62.2,29.68,South,172,0.0,1.0,94,0.00,,,0.26,0.00,VWS V14.00,2013-05-23 08:36:00,
2013-05-23 04:41:00,64.0,62.2,29.68,South,172,0.0,0.0,94,0.00,,,0.26,0.00,VWS V14.00,2013-05-23 08:41:00,
2013-05-23 04:46:00,64.0,62.2,29.68,South,172,0.0,0.0,94,0.00,,,0.26,0.00,VWS V14.00,2013-05-23 08:46:00,
2013-05-23 04:51:00,63.9,62.1,29.68,South,172,0.0,0.0,94,0.00,,,0.26,0.00,VWS V14.00,2013-05-23 08:51:00,
2013-05-23 04:56:00,63.9,62.1,29.68,South,172,0.0,0.0,94,0.00,,,0.26,0.00,VWS V14.00,2013-05-23 08:56:00,
2013-05-23 05:01:00,64.0,62.2,29.68,SW,235,1.0,3.0,94,0.00,,,0.26,0.00,VWS V14.00,2013-05-23 09:01:00,
2013-05-23 05:06:00,64.1,62.3,29.69,SW,236,1.0,4.0,94,0.00,,,0.26,0.00,VWS V14.00,2013-05-23 09:06:00,
2013-05-23 05:11:00,64.1,62.3,29.69,WSW,237,0.0,1.0,94,0.00,,,0.26,0.00,VWS V14.00,2013-05-23 09:11:00,
2013-05-23 05:16:00,64.0,62.2,29.69,WSW,237,0.0,1.0,94,0.00,,,0.26,0.00,VWS V14.00,2013-05-23 09:16:00,
2013-05-23 05:21:00,63.9,62.1,29.69,WSW,237,0.0,0.0,94,0.00,,,0.26,0.00,VWS V14.00,2013-05-23 09:21:00,
2013-05-23 05:26:00,63.8,62.0,29.68,WSW,237,0.0,0.0,94,0.00,,,0.26,0.00,VWS V14.00,2013-05-23 09:26:00,
2013-05-23 05:31:00,63.9,62.1,29.68,SSW,202,3.0,3.0,94,0.00,,,0.26,7.00,VWS V14.00,2013-05-23 09:31:00,
2013-05-23 05:36:00,64.1,62.6,29.68,SSW,202,0.0,0.0,95,0.00,,,0.26,9.00,VWS V14.00,2013-05-23 09:36:00,
2013-05-23 05:41:00,64.3,62.8,29.69,SSW,202,1.0,2.0,95,0.00,,,0.26,11.00,VWS V14.00,2013-05-23 09:41:00,
2013-05-23 05:46:00,64.2,62.4,29.69,SSW,202,1.0,1.0,94,0.00,,,0.26,12.00,VWS V14.00,2013-05-23 09:46:00,
2013-05-23 05:51:00,64.0,62.2,29.69,SSW,203,2.0,2.0,94,0.00,,,0.26,14.00,VWS V14.00,2013-05-23 09:51:00,
2013-05-23 05:56:00,63.7,62.0,29.69,SSW,202,0.0,0.0,94,0.00,,,0.26,16.00,VWS V14.00,2013-05-23 09:56:00,
2013-05-23 06:01:00,63.6,61.8,29.69,SSW,202,0.0,0.0,94,0.00,,,0.26,21.00,VWS V14.00,2013-05-23 10:01:00,
2013-05-23 06:06:00,63.6,61.8,29.69,SSW,202,0.0,1.0,94,0.00,,,0.26,21.00,VWS V14.00,2013-05-23 10:06:00,
2013-05-23 06:11:00,63.6,61.8,29.69,SSW,202,0.0,0.0,94,0.00,,,0.26,30.00,VWS V14.00,2013-05-23 10:11:00,
2013-05-23 06:16:00,63.6,62.2,29.69,SSW,202,0.0,0.0,95,0.00,,,0.26,37.00,VWS V14.00,2013-05-23 10:16:00,
2013-05-23 06:21:00,63.6,62.2,29.69,SSW,202,0.0,0.0,95,0.00,,,0.26,42.00,VWS V14.00,2013-05-23 10:21:00,
2013-05-23 06:26:00,63.7,62.0,29.70,SSW,202,0.0,0.0,94,0.00,,,0.26,47.00,VWS V14.00,2013-05-23 10:26:00,
2013-05-23 06:31:00,63.8,62.3,29.70,SSW,202,0.0,0.0,95,0.00,,,0.26,44.00,VWS V14.00,2013-05-23 10:31:00,
2013-05-23 06:36:00,63.8,62.0,29.70,SSW,202,0.0,0.0,94,0.00,,,0.26,37.00,VWS V14.00,2013-05-23 10:36:00,
2013-05-23 06:41:00,63.9,62.4,29.70,SSW,202,0.0,1.0,95,0.00,,,0.26,44.00,VWS V14.00,2013-05-23 10:41:00,
2013-05-23 06:46:00,63.9,62.4,29.71,SSW,202,0.0,2.0,95,0.00,,,0.26,69.00,VWS V14.00,2013-05-23 10:46:00,
2013-05-23 06:51:00,64.0,62.5,29.71,SSW,202,0.0,0.0,95,0.00,,,0.26,83.00,VWS V14.00,2013-05-23 10:51:00,
2013-05-23 06:56:00,64.1,62.6,29.71,SSW,202,0.0,0.0,95,0.00,,,0.26,90.00,VWS V14.00,2013-05-23 10:56:00,
2013-05-23 07:01:00,64.4,62.9,29.71,SSW,202,0.0,0.0,95,0.00,,,0.26,88.00,VWS V14.00,2013-05-23 11:01:00,
2013-05-23 07:06:00,64.6,63.1,29.71,SSW,202,0.0,0.0,95,0.00,,,0.26,63.00,VWS V14.00,2013-05-23 11:06:00,
2013-05-23 07:11:00,64.8,63.3,29.71,SSW,202,0.0,0.0,95,0.00,,,0.26,79.00,VWS V14.00,2013-05-23 11:11:00,
2013-05-23 07:16:00,65.0,63.5,29.71,SSE,167,3.0,13.0,95,0.00,,,0.26,113.00,VWS V14.00,2013-05-23 11:16:00,
2013-05-23 07:21:00,65.0,63.5,29.71,SSW,213,0.0,6.0,95,0.00,,,0.26,171.00,VWS V14.00,2013-05-23 11:21:00,
2013-05-23 07:26:00,65.0,63.5,29.71,WSW,243,0.0,5.0,95,0.00,,,0.26,155.00,VWS V14.00,2013-05-23 11:26:00,
2013-05-23 07:31:00,65.0,63.5,29.72,SW,227,5.0,5.0,95,0.00,,,0.26,163.00,VWS V14.00,2013-05-23 11:31:00,
2013-05-23 07:36:00,65.0,63.5,29.72,SW,223,0.0,4.0,95,0.00,,,0.26,130.00,VWS V14.00,2013-05-23 11:36:00,
2013-05-23 07:41:00,65.1,63.6,29.72,SW,230,6.0,6.0,95,0.00,,,0.26,118.00,VWS V14.00,2013-05-23 11:41:00,
2013-05-23 07:46:00,65.0,63.5,29.72,WSW,242,2.0,7.0,95,0.00,,,0.26,132.00,VWS V14.00,2013-05-23 11:46:00,
2013-05-23 07:51:00,65.0,63.5,29.72,WSW,240,9.0,9.0,95,0.00,,,0.26,139.00,VWS V14.00,2013-05-23 11:51:00,
2013-05-23 07:56:00,65.1,63.6,29.72,WSW,257,4.0,7.0,95,0.00,,,0.26,123.00,VWS V14.00,2013-05-23 11:56:00,
2013-05-23 08:01:00,65.1,63.3,29.72,WSW,252,7.0,7.0,94,0.00,,,0.26,77.00,VWS V14.00,2013-05-23 12:01:00,
2013-05-23 08:06:00,65.1,63.3,29.72,SW,229,7.0,9.0,94,0.00,,,0.26,69.00,VWS V14.00,2013-05-23 12:06:00,
2013-05-23 08:11:00,65.1,63.3,29.72,SW,231,1.0,9.0,94,0.00,,,0.26,95.00,VWS V14.00,2013-05-23 12:11:00,
2013-05-23 08:16:00,65.1,63.3,29.72,WSW,246,3.0,8.0,94,0.00,,,0.26,149.00,VWS V14.00,2013-05-23 12:16:00,
2013-05-23 08:21:00,65.3,63.5,29.72,WSW,250,7.0,8.0,94,0.00,,,0.26,100.00,VWS V14.00,2013-05-23 12:21:00,
2013-05-23 08:26:00,65.4,63.3,29.72,SW,236,3.0,4.0,93,0.00,,,0.26,65.00,VWS V14.00,2013-05-23 12:26:00,
2013-05-23 08:31:00,65.5,63.4,29.72,SSW,209,1.0,2.0,93,0.00,,,0.26,63.00,VWS V14.00,2013-05-23 12:31:00,
2013-05-23 08:36:00,65.6,63.2,29.72,SW,227,2.0,5.0,92,0.00,,,0.26,104.00,VWS V14.00,2013-05-23 12:36:00,
2013-05-23 08:41:00,65.8,63.4,29.72,WSW,255,6.0,6.0,92,0.00,,,0.26,149.00,VWS V14.00,2013-05-23 12:41:00,
2013-05-23 08:46:00,65.9,63.5,29.72,WSW,248,5.0,11.0,92,0.00,,,0.26,139.00,VWS V14.00,2013-05-23 12:46:00,
2013-05-23 08:51:00,65.9,63.2,29.72,SW,221,4.0,6.0,91,0.00,,,0.26,114.00,VWS V14.00,2013-05-23 12:51:00,
2013-05-23 08:56:00,66.0,63.3,29.72,WSW,237,6.0,9.0,91,0.00,,,0.26,171.00,VWS V14.00,2013-05-23 12:56:00,
2013-05-23 09:01:00,66.1,63.1,29.73,West,261,5.0,8.0,90,0.00,,,0.26,158.00,VWS V14.00,2013-05-23 13:01:00,
2013-05-23 09:07:00,66.2,63.2,29.72,SW,215,1.0,5.0,90,0.00,,,0.26,160.00,VWS V14.00,2013-05-23 13:07:00,
2013-05-23 09:12:00,66.4,63.4,29.73,SW,224,3.0,4.0,90,0.00,,,0.26,148.00,VWS V14.00,2013-05-23 13:12:00,
2013-05-23 09:17:00,66.5,63.2,29.72,SW,235,4.0,6.0,89,0.00,,,0.26,104.00,VWS V14.00,2013-05-23 13:17:00,
2013-05-23 09:21:00,66.5,63.2,29.72,SW,222,5.0,6.0,89,0.00,,,0.26,107.00,VWS V14.00,2013-05-23 13:21:00,
2013-05-23 09:26:00,66.6,63.3,29.72,WSW,237,0.0,3.0,89,0.00,,,0.26,142.00,VWS V14.00,2013-05-23 13:26:00,
2013-05-23 09:31:00,66.7,63.0,29.72,SW,236,8.0,10.0,88,0.00,,,0.26,149.00,VWS V14.00,2013-05-23 13:31:00,
2013-05-23 09:36:00,66.7,63.0,29.72,SW,226,5.0,6.0,88,0.00,,,0.26,186.00,VWS V14.00,2013-05-23 13:36:00,
2013-05-23 09:41:00,66.8,63.1,29.72,WSW,242,0.0,6.0,88,0.00,,,0.26,232.00,VWS V14.00,2013-05-23 13:41:00,
2013-05-23 09:46:00,67.0,63.3,29.72,SW,225,4.0,6.0,88,0.00,,,0.26,269.00,VWS V14.00,2013-05-23 13:46:00,
2013-05-23 09:51:00,67.3,63.6,29.72,SE,136,2.0,9.0,88,0.00,,,0.26,323.00,VWS V14.00,2013-05-23 13:51:00,
2013-05-23 09:56:00,67.5,63.5,29.71,SW,236,6.0,7.0,87,0.00,,,0.26,253.00,VWS V14.00,2013-05-23 13:56:00,
2013-05-23 10:02:00,67.8,63.8,29.71,SSW,213,5.0,10.0,87,0.00,,,0.26,318.00,VWS V14.00,2013-05-23 14:02:00,
2013-05-23 10:06:00,68.0,63.7,29.71,WSW,240,11.0,13.0,86,0.00,,,0.26,357.00,VWS V14.00,2013-05-23 14:06:00,
2013-05-23 10:11:00,68.2,63.9,29.71,SW,216,9.0,9.0,86,0.00,,,0.26,352.00,VWS V14.00,2013-05-23 14:11:00,
2013-05-23 10:16:00,68.7,64.3,29.71,SW,233,5.0,7.0,86,0.00,,,0.26,510.00,VWS V14.00,2013-05-23 14:16:00,
2013-05-23 10:21:00,69.3,64.9,29.71,South,187,7.0,10.0,86,0.00,,,0.26,429.00,VWS V14.00,2013-05-23 14:21:00,
2013-05-23 10:26:00,69.8,64.8,29.71,SSW,207,7.0,20.0,84,0.00,,,0.26,427.00,VWS V14.00,2013-05-23 14:26:00,
2013-05-23 10:31:00,70.0,64.6,29.71,SSW,202,5.0,9.0,83,0.00,,,0.26,364.00,VWS V14.00,2013-05-23 14:31:00,
2013-05-23 10:36:00,70.6,64.8,29.71,WSW,244,9.0,14.0,82,0.00,,,0.26,875.00,VWS V14.00,2013-05-23 14:36:00,
2013-05-23 10:41:00,71.5,65.7,29.71,SE,146,9.0,11.0,82,0.00,,,0.26,693.00,VWS V14.00,2013-05-23 14:41:00,
2013-05-23 10:46:00,72.3,65.8,29.71,SW,228,7.0,16.0,80,0.00,,,0.26,1039.00,VWS V14.00,2013-05-23 14:46:00,
2013-05-23 10:51:00,72.9,65.7,29.71,SW,225,8.0,14.0,78,0.00,,,0.26,610.00,VWS V14.00,2013-05-23 14:51:00,
2013-05-23 10:56:00,73.2,65.6,29.71,SW,234,13.0,13.0,77,0.00,,,0.26,552.00,VWS V14.00,2013-05-23 14:56:00,
2013-05-23 11:01:00,73.4,65.8,29.72,South,183,3.0,5.0,77,0.00,,,0.26,599.00,VWS V14.00,2013-05-23 15:01:00,
2013-05-23 11:07:00,73.5,65.9,29.71,SW,230,5.0,10.0,77,0.00,,,0.26,403.00,VWS V14.00,2013-05-23 15:07:00,
2013-05-23 11:12:00,73.5,65.9,29.71,WSW,242,6.0,6.0,77,0.01,,,0.27,318.00,VWS V14.00,2013-05-23 15:12:00,
2013-05-23 11:17:00,73.3,66.0,29.72,SW,221,4.0,8.0,78,0.01,,,0.27,308.00,VWS V14.00,2013-05-23 15:17:00,
2013-05-23 11:22:00,73.0,66.1,29.72,South,174,1.0,3.0,79,0.01,,,0.27,213.00,VWS V14.00,2013-05-23 15:22:00,
2013-05-23 11:27:00,72.6,65.7,29.72,SW,220,2.0,9.0,79,0.01,,,0.27,167.00,VWS V14.00,2013-05-23 15:27:00,
2013-05-23 11:32:00,72.0,65.5,29.72,SSW,213,8.0,8.0,80,0.02,,,0.28,169.00,VWS V14.00,2013-05-23 15:32:00,
2013-05-23 11:37:00,71.5,65.4,29.72,SW,229,5.0,6.0,81,0.02,,,0.28,230.00,VWS V14.00,2013-05-23 15:37:00,
2013-05-23 11:42:00,71.1,65.3,29.72,SSW,211,3.0,9.0,82,0.02,,,0.28,213.00,VWS V14.00,2013-05-23 15:42:00,
2013-05-23 11:47:00,70.6,65.2,29.72,SW,217,4.0,6.0,83,0.02,,,0.28,181.00,VWS V14.00,2013-05-23 15:47:00,
2013-05-23 11:52:00,70.3,65.2,29.72,SW,221,1.0,7.0,84,0.02,,,0.28,218.00,VWS V14.00,2013-05-23 15:52:00,
2013-05-23 11:57:00,70.2,65.5,29.72,SW,227,4.0,4.0,85,0.02,,,0.28,264.00,VWS V14.00,2013-05-23 15:57:00,
2013-05-23 12:02:00,70.0,65.3,29.72,SSW,205,1.0,5.0,85,0.02,,,0.28,253.00,VWS V14.00,2013-05-23 16:02:00,
2013-05-23 12:07:00,69.9,65.2,29.72,SW,229,3.0,5.0,85,0.02,,,0.28,241.00,VWS V14.00,2013-05-23 16:07:00,
2013-05-23 12:12:00,69.9,65.2,29.72,South,188,2.0,9.0,85,0.01,,,0.28,262.00,VWS V14.00,2013-05-23 16:12:00,
2013-05-23 12:17:00,69.8,65.1,29.72,SW,234,5.0,7.0,85,0.01,,,0.28,271.00,VWS V14.00,2013-05-23 16:17:00,
2013-05-23 12:22:00,69.9,65.5,29.72,WSW,254,6.0,6.0,86,0.01,,,0.28,364.00,VWS V14.00,2013-05-23 16:22:00,
2013-05-23 12:27:00,70.2,65.8,29.72,SSW,196,2.0,4.0,86,0.01,,,0.28,410.00,VWS V14.00,2013-05-23 16:27:00,
2013-05-23 12:32:00,70.5,66.1,29.72,SW,220,10.0,10.0,86,0.00,,,0.28,515.00,VWS V14.00,2013-05-23 16:32:00,
2013-05-23 12:37:00,71.3,67.2,29.71,SSE,163,2.0,6.0,87,0.00,,,0.28,476.00,VWS V14.00,2013-05-23 16:37:00,
2013-05-23 12:42:00,71.7,67.3,29.70,SW,217,5.0,12.0,86,0.00,,,0.28,469.00,VWS V14.00,2013-05-23 16:42:00,
2013-05-23 12:47:00,72.9,67.8,29.70,SSW,211,7.0,9.0,84,0.00,,,0.28,1216.00,VWS V14.00,2013-05-23 16:47:00,
2013-05-23 12:52:00,73.8,68.0,29.70,West,261,5.0,8.0,82,0.00,,,0.28,984.00,VWS V14.00,2013-05-23 16:52:00,
2013-05-23 12:57:00,74.2,67.6,29.70,West,268,11.0,12.0,80,0.00,,,0.28,557.00,VWS V14.00,2013-05-23 16:57:00,
2013-05-23 13:02:00,74.2,66.5,29.70,SSW,211,4.0,8.0,77,0.00,,,0.28,475.00,VWS V14.00,2013-05-23 17:02:00,
2013-05-23 13:07:00,74.2,66.5,29.70,WSW,241,1.0,8.0,77,0.00,,,0.28,366.00,VWS V14.00,2013-05-23 17:07:00,
2013-05-23 13:12:00,74.0,66.0,29.70,WSW,256,5.0,7.0,76,0.00,,,0.28,221.00,VWS V14.00,2013-05-23 17:12:00,
2013-05-23 13:17:00,73.8,66.2,29.70,South,191,4.0,6.0,77,0.00,,,0.28,339.00,VWS V14.00,2013-05-23 17:17:00,
2013-05-23 13:22:00,73.7,66.4,29.70,South,172,5.0,8.0,78,0.00,,,0.28,468.00,VWS V14.00,2013-05-23 17:22:00,
2013-05-23 13:27:00,73.9,67.0,29.69,SW,225,5.0,11.0,79,0.00,,,0.28,740.00,VWS V14.00,2013-05-23 17:27:00,
2013-05-23 13:32:00,74.0,66.0,29.70,South,172,3.0,7.0,76,0.00,,,0.28,517.00,VWS V14.00,2013-05-23 17:32:00,
2013-05-23 13:37:00,74.4,67.1,29.69,SW,224,5.0,6.0,78,0.00,,,0.28,671.00,VWS V14.00,2013-05-23 17:37:00,
2013-05-23 13:42:00,74.9,66.4,29.69,SW,225,3.0,10.0,75,0.00,,,0.28,679.00,VWS V14.00,2013-05-23 17:42:00,
2013-05-23 13:47:00,75.3,66.8,29.69,SSE,167,1.0,10.0,75,0.00,,,0.28,482.00,VWS V14.00,2013-05-23 17:47:00,
2013-05-23 13:52:00,75.5,66.6,29.69,South,178,4.0,7.0,74,0.00,,,0.28,563.00,VWS V14.00,2013-05-23 17:52:00,
2013-05-23 13:57:00,75.8,66.9,29.68,SW,221,7.0,11.0,74,0.00,,,0.28,541.00,VWS V14.00,2013-05-23 17:57:00,
2013-05-23 14:02:00,75.8,66.5,29.68,SSE,167,6.0,13.0,73,0.00,,,0.28,837.00,VWS V14.00,2013-05-23 18:02:00,
2013-05-23 14:07:00,75.8,66.5,29.67,South,188,12.0,18.0,73,0.00,,,0.28,550.00,VWS V14.00,2013-05-23 18:07:00,
2013-05-23 14:12:00,75.7,66.0,29.67,SSW,213,3.0,9.0,72,0.00,,,0.28,517.00,VWS V14.00,2013-05-23 18:12:00,
2013-05-23 14:17:00,75.6,65.9,29.68,SW,229,6.0,13.0,72,0.00,,,0.28,480.00,VWS V14.00,2013-05-23 18:17:00,
2013-05-23 14:22:00,75.5,65.4,29.67,SW,222,6.0,9.0,71,0.00,,,0.28,545.00,VWS V14.00,2013-05-23 18:22:00,
2013-05-23 14:27:00,75.3,65.3,29.67,SW,233,5.0,7.0,71,0.00,,,0.28,628.00,VWS V14.00,2013-05-23 18:27:00,
2013-05-23 14:32:00,75.7,66.4,29.67,South,185,3.0,7.0,73,0.00,,,0.28,512.00,VWS V14.00,2013-05-23 18:32:00,
2013-05-23 14:37:00,76.2,66.9,29.67,SSW,202,5.0,6.0,73,0.00,,,0.28,988.00,VWS V14.00,2013-05-23 18:37:00,
2013-05-23 14:42:00,76.7,65.8,29.67,SW,230,11.0,12.0,69,0.00,,,0.28,548.00,VWS V14.00,2013-05-23 18:42:00,
2013-05-23 14:47:00,76.9,66.4,29.67,SW,229,7.0,8.0,70,0.00,,,0.28,548.00,VWS V14.00,2013-05-23 18:47:00,
2013-05-23 14:52:00,77.2,66.2,29.67,South,173,8.0,14.0,69,0.00,,,0.28,1079.00,VWS V14.00,2013-05-23 18:52:00,
2013-05-23 14:57:00,77.5,65.7,29.67,SSW,198,4.0,9.0,67,0.00,,,0.28,972.00,VWS V14.00,2013-05-23 18:57:00,
2013-05-23 15:02:00,77.8,65.5,29.66,SW,235,3.0,9.0,66,0.00,,,0.28,984.00,VWS V14.00,2013-05-23 19:02:00,
2013-05-23 15:07:00,78.0,65.3,29.66,SW,224,6.0,11.0,65,0.00,,,0.28,610.00,VWS V14.00,2013-05-23 19:07:00,
2013-05-23 15:12:00,77.9,65.2,29.66,South,187,2.0,12.0,65,0.00,,,0.28,496.00,VWS V14.00,2013-05-23 19:12:00,
2013-05-23 15:17:00,77.8,65.5,29.66,West,269,8.0,10.0,66,0.00,,,0.28,534.00,VWS V14.00,2013-05-23 19:17:00,
2013-05-23 15:22:00,77.8,66.0,29.65,South,188,6.0,7.0,67,0.00,,,0.28,570.00,VWS V14.00,2013-05-23 19:22:00,
2013-05-23 15:27:00,78.0,65.7,29.65,WSW,246,8.0,9.0,66,0.00,,,0.28,288.00,VWS V14.00,2013-05-23 19:27:00,
2013-05-23 15:32:00,77.8,65.1,29.65,SW,236,3.0,6.0,65,0.00,,,0.28,680.00,VWS V14.00,2013-05-23 19:32:00,
2013-05-23 15:37:00,77.8,65.5,29.65,SSW,205,7.0,12.0,66,0.00,,,0.28,357.00,VWS V14.00,2013-05-23 19:37:00,
2013-05-23 15:42:00,78.0,64.8,29.65,SSW,201,6.0,8.0,64,0.00,,,0.28,937.00,VWS V14.00,2013-05-23 19:42:00,
2013-05-23 15:47:00,78.0,64.8,29.65,SSE,163,4.0,12.0,64,0.00,,,0.28,582.00,VWS V14.00,2013-05-23 19:47:00,
2013-05-23 15:52:00,77.8,64.7,29.65,South,186,6.0,10.0,64,0.00,,,0.28,243.00,VWS V14.00,2013-05-23 19:52:00,
2013-05-23 15:57:00,77.3,63.7,29.65,SW,221,3.0,10.0,63,0.00,,,0.28,206.00,VWS V14.00,2013-05-23 19:57:00,
2013-05-23 16:02:00,76.9,63.8,29.65,SW,228,4.0,7.0,64,0.00,,,0.28,135.00,VWS V14.00,2013-05-23 20:02:00,
2013-05-23 16:07:00,76.6,63.5,29.64,SW,229,5.0,8.0,64,0.00,,,0.28,172.00,VWS V14.00,2013-05-23 20:07:00,
2013-05-23 16:12:00,76.3,63.7,29.64,SSW,202,0.0,5.0,65,0.00,,,0.28,98.00,VWS V14.00,2013-05-23 20:12:00,
2013-05-23 16:17:00,76.2,64.9,29.64,SSE,161,1.0,3.0,68,0.00,,,0.28,167.00,VWS V14.00,2013-05-23 20:17:00,
2013-05-23 16:22:00,76.0,64.7,29.64,SSW,205,2.0,8.0,68,0.00,,,0.28,174.00,VWS V14.00,2013-05-23 20:22:00,
2013-05-23 16:27:00,75.8,64.5,29.64,South,180,8.0,9.0,68,0.00,,,0.28,178.00,VWS V14.00,2013-05-23 20:27:00,
2013-05-23 16:32:00,75.5,64.2,29.64,South,184,4.0,12.0,68,0.00,,,0.28,230.00,VWS V14.00,2013-05-23 20:32:00,
2013-05-23 16:37:00,75.5,64.6,29.63,SW,234,4.0,5.0,69,0.00,,,0.28,195.00,VWS V14.00,2013-05-23 20:37:00,
2013-05-23 16:42:00,75.6,64.3,29.64,WSW,246,6.0,15.0,68,0.00,,,0.28,162.00,VWS V14.00,2013-05-23 20:42:00,
2013-05-23 16:47:00,75.5,63.4,29.64,SSW,209,6.0,11.0,66,0.00,,,0.28,125.00,VWS V14.00,2013-05-23 20:47:00,
2013-05-23 16:52:00,75.3,63.6,29.65,West,269,2.0,7.0,67,0.00,,,0.28,77.00,VWS V14.00,2013-05-23 20:52:00,
2013-05-23 16:57:00,75.2,64.3,29.65,NW,319,0.0,5.0,69,0.00,,,0.28,93.00,VWS V14.00,2013-05-23 20:57:00,
2013-05-23 17:02:00,74.7,64.3,29.65,NNW,331,4.0,7.0,70,0.00,,,0.28,72.00,VWS V14.00,2013-05-23 21:02:00,
2013-05-23 17:07:00,73.9,64.7,29.66,WSW,250,0.0,1.0,73,0.00,,,0.28,74.00,VWS V14.00,2013-05-23 21:07:00,
2013-05-23 17:12:00,73.2,64.8,29.66,West,273,0.0,6.0,75,0.00,,,0.28,116.00,VWS V14.00,2013-05-23 21:12:00,
2013-05-23 17:17:00,72.7,64.7,29.65,West,274,2.0,3.0,76,0.00,,,0.28,174.00,VWS V14.00,2013-05-23 21:17:00,
2013-05-23 17:22:00,72.3,64.3,29.65,WSW,257,2.0,6.0,76,0.00,,,0.28,127.00,VWS V14.00,2013-05-23 21:22:00,
2013-05-23 17:27:00,72.0,64.4,29.66,NW,311,0.0,8.0,77,0.00,,,0.28,149.00,VWS V14.00,2013-05-23 21:27:00,
2013-05-23 17:32:00,71.7,64.1,29.65,WSW,252,0.0,2.0,77,0.00,,,0.28,244.00,VWS V14.00,2013-05-23 21:32:00,
2013-05-23 17:37:00,71.7,64.5,29.65,West,272,0.0,5.0,78,0.00,,,0.28,204.00,VWS V14.00,2013-05-23 21:37:00,
2013-05-23 17:43:00,71.7,64.8,29.65,West,277,0.0,4.0,79,0.00,,,0.28,202.00,VWS V14.00,2013-05-23 21:43:00,
2013-05-23 17:48:00,71.7,64.5,29.66,West,277,1.0,2.0,78,0.00,,,0.28,172.00,VWS V14.00,2013-05-23 21:48:00,
2013-05-23 17:53:00,71.5,63.9,29.66,WNW,299,0.0,5.0,77,0.00,,,0.28,195.00,VWS V14.00,2013-05-23 21:53:00,
2013-05-23 17:58:00,71.4,63.8,29.65,West,270,0.0,5.0,77,0.00,,,0.28,188.00,VWS V14.00,2013-05-23 21:58:00,
2013-05-23 18:03:00,71.4,63.8,29.65,WSW,240,3.0,6.0,77,0.00,,,0.28,171.00,VWS V14.00,2013-05-23 22:03:00,
2013-05-23 18:08:00,71.4,63.5,29.65,West,274,0.0,2.0,76,0.00,,,0.28,160.00,VWS V14.00,2013-05-23 22:08:00,
2013-05-23 18:13:00,71.4,63.5,29.65,West,270,0.0,1.0,76,0.00,,,0.28,156.00,VWS V14.00,2013-05-23 22:13:00,
2013-05-23 18:18:00,71.4,63.5,29.65,West,275,1.0,2.0,76,0.00,,,0.28,142.00,VWS V14.00,2013-05-23 22:18:00,
2013-05-23 18:23:00,71.3,63.3,29.65,West,275,0.0,1.0,76,0.00,,,0.28,98.00,VWS V14.00,2013-05-23 22:23:00,
2013-05-23 18:28:00,71.3,63.3,29.65,West,275,0.0,1.0,76,0.00,,,0.28,88.00,VWS V14.00,2013-05-23 22:28:00,
2013-05-23 18:33:00,71.2,63.3,29.65,West,275,0.0,1.0,76,0.00,,,0.28,56.00,VWS V14.00,2013-05-23 22:33:00,
2013-05-23 18:38:00,71.1,63.2,29.65,West,275,0.0,0.0,76,0.00,,,0.28,44.00,VWS V14.00,2013-05-23 22:38:00,
2013-05-23 18:43:00,70.9,63.3,29.65,NNW,342,0.0,3.0,77,0.00,,,0.28,14.00,VWS V14.00,2013-05-23 22:43:00,
2013-05-23 18:48:00,70.8,63.2,29.65,NNW,342,0.0,1.0,77,0.00,,,0.28,30.00,VWS V14.00,2013-05-23 22:48:00,
2013-05-23 18:53:00,70.7,63.5,29.65,West,273,0.0,1.0,78,0.00,,,0.28,33.00,VWS V14.00,2013-05-23 22:53:00,
2013-05-23 18:58:00,70.5,63.3,29.65,West,273,0.0,0.0,78,0.00,,,0.28,25.00,VWS V14.00,2013-05-23 22:58:00,
2013-05-23 19:03:00,70.4,63.6,29.66,West,273,0.0,2.0,79,0.02,,,0.30,26.00,VWS V14.00,2013-05-23 23:03:00,
2013-05-23 19:08:00,70.3,63.5,29.66,West,273,0.0,1.0,79,0.06,,,0.34,14.00,VWS V14.00,2013-05-23 23:08:00,
2013-05-23 19:13:00,70.2,64.1,29.66,West,273,0.0,1.0,81,0.08,,,0.36,12.00,VWS V14.00,2013-05-23 23:13:00,
2013-05-23 19:18:00,69.9,64.2,29.66,West,275,3.0,3.0,82,0.10,,,0.38,5.00,VWS V14.00,2013-05-23 23:18:00,
2013-05-23 19:23:00,69.4,63.7,29.66,West,277,0.0,1.0,82,0.17,,,0.45,7.00,VWS V14.00,2013-05-23 23:23:00,
2013-05-23 19:28:00,68.9,63.5,29.65,NW,320,5.0,7.0,83,0.24,,,0.52,5.00,VWS V14.00,2013-05-23 23:28:00,
2013-05-23 19:33:00,68.2,63.2,29.66,NW,315,2.0,3.0,84,0.30,,,0.58,0.00,VWS V14.00,2013-05-23 23:33:00,
2013-05-23 19:38:00,67.6,62.9,29.66,West,267,4.0,8.0,85,0.48,,,0.76,0.00,VWS V14.00,2013-05-23 23:38:00,
2013-05-23 19:43:00,67.0,62.7,29.66,WNW,294,1.0,3.0,86,0.56,,,0.84,0.00,VWS V14.00,2013-05-23 23:43:00,
2013-05-23 19:48:00,66.5,62.5,29.66,WSW,245,9.0,9.0,87,0.62,,,0.90,0.00,VWS V14.00,2013-05-23 23:48:00,
2013-05-23 19:53:00,65.9,62.2,29.66,WSW,257,2.0,9.0,88,0.65,,,0.93,0.00,VWS V14.00,2013-05-23 23:53:00,
2013-05-23 19:58:00,65.5,61.9,29.67,West,281,6.0,9.0,88,0.67,,,0.95,0.00,VWS V14.00,2013-05-23 23:58:00,
2013-05-23 20:03:00,65.1,61.5,29.67,West,267,7.0,8.0,88,0.67,,,0.96,0.00,VWS V14.00,2013-05-24 00:03:00,
2013-05-23 20:08:00,64.6,61.3,29.66,West,267,4.0,10.0,89,0.65,,,0.97,0.00,VWS V14.00,2013-05-24 00:08:00,
2013-05-23 20:13:00,64.2,60.9,29.67,West,259,1.0,7.0,89,0.63,,,0.98,0.00,VWS V14.00,2013-05-24 00:13:00,
2013-05-23 20:18:00,63.9,60.6,29.67,West,271,7.0,10.0,89,0.61,,,0.98,0.00,VWS V14.00,2013-05-24 00:18:00,
2013-05-23 20:23:00,63.6,60.3,29.67,West,268,1.0,8.0,89,0.58,,,0.99,0.00,VWS V14.00,2013-05-24 00:23:00,
2013-05-23 20:28:00,63.4,60.4,29.66,West,266,0.0,2.0,90,0.48,,,0.99,0.00,VWS V14.00,2013-05-24 00:28:00,
2013-05-23 20:33:00,63.2,60.2,29.66,West,263,1.0,3.0,90,0.45,,,0.99,0.00,VWS V14.00,2013-05-24 00:33:00,
2013-05-23 20:38:00,63.0,60.0,29.66,SW,219,4.0,6.0,90,0.28,,,1.00,0.00,VWS V14.00,2013-05-24 00:38:00,
2013-05-23 20:43:00,62.8,59.8,29.66,SW,227,4.0,7.0,90,0.19,,,1.00,0.00,VWS V14.00,2013-05-24 00:43:00,
2013-05-23 20:48:00,62.6,59.6,29.66,West,276,2.0,5.0,90,0.13,,,1.01,0.00,VWS V14.00,2013-05-24 00:48:00,
2013-05-23 20:53:00,62.5,59.5,29.66,West,276,0.0,0.0,90,0.09,,,1.01,0.00,VWS V14.00,2013-05-24 00:53:00,
2013-05-23 20:58:00,62.3,59.3,29.66,West,276,0.0,0.0,90,0.07,,,1.01,0.00,VWS V14.00,2013-05-24 00:58:00,
2013-05-23 21:03:00,62.2,59.2,29.67,West,276,0.0,0.0,90,0.06,,,1.01,0.00,VWS V14.00,2013-05-24 01:03:00,
2013-05-23 21:08:00,62.1,59.1,29.67,West,276,0.0,1.0,90,0.04,,,1.01,0.00,VWS V14.00,2013-05-24 01:08:00,
2013-05-23 21:13:00,62.0,59.3,29.67,West,276,0.0,0.0,91,0.03,,,1.01,0.00,VWS V14.00,2013-05-24 01:13:00,
2013-05-23 21:18:00,61.9,59.2,29.67,West,276,0.0,0.0,91,0.03,,,1.01,0.00,VWS V14.00,2013-05-24 01:18:00,
2013-05-23 21:23:00,61.8,59.2,29.68,West,276,0.0,1.0,91,0.03,,,1.01,0.00,VWS V14.00,2013-05-24 01:23:00,
2013-05-23 21:28:00,61.7,59.0,29.68,West,276,0.0,0.0,91,0.02,,,1.01,0.00,VWS V14.00,2013-05-24 01:28:00,
2013-05-23 21:33:00,61.6,59.0,29.68,West,276,0.0,0.0,91,0.02,,,1.01,0.00,VWS V14.00,2013-05-24 01:33:00,
2013-05-23 21:38:00,61.6,59.0,29.68,West,276,0.0,0.0,91,0.02,,,1.01,0.00,VWS V14.00,2013-05-24 01:38:00,
2013-05-23 21:43:00,61.5,58.8,29.68,West,276,0.0,0.0,91,0.01,,,1.01,0.00,VWS V14.00,2013-05-24 01:43:00,
2013-05-23 21:48:00,61.4,58.8,29.68,West,276,0.0,2.0,91,0.01,,,1.01,0.00,VWS V14.00,2013-05-24 01:48:00,
2013-05-23 21:53:00,61.3,58.7,29.68,West,276,0.0,2.0,91,0.00,,,1.01,0.00,VWS V14.00,2013-05-24 01:53:00,
2013-05-23 21:58:00,61.2,58.9,29.68,West,276,0.0,0.0,92,0.00,,,1.01,0.00,VWS V14.00,2013-05-24 01:58:00,
2013-05-23 22:03:00,61.1,58.8,29.68,West,276,0.0,0.0,92,0.00,,,1.01,0.00,VWS V14.00,2013-05-24 02:03:00,
2013-05-23 22:08:00,61.1,58.8,29.68,West,276,0.0,0.0,92,0.00,,,1.01,0.00,VWS V14.00,2013-05-24 02:08:00,
2013-05-23 22:13:00,61.1,58.8,29.68,West,276,0.0,0.0,92,0.00,,,1.01,0.00,VWS V14.00,2013-05-24 02:13:00,
2013-05-23 22:18:00,61.0,58.7,29.68,West,276,0.0,0.0,92,0.00,,,1.01,0.00,VWS V14.00,2013-05-24 02:18:00,
2013-05-23 22:23:00,61.0,58.7,29.68,West,276,0.0,0.0,92,0.00,,,1.01,0.00,VWS V14.00,2013-05-24 02:23:00,
2013-05-23 22:28:00,61.0,58.7,29.68,West,276,0.0,0.0,92,0.00,,,1.01,0.00,VWS V14.00,2013-05-24 02:28:00,
2013-05-23 22:33:00,60.9,58.6,29.67,West,276,0.0,0.0,92,0.00,,,1.01,0.00,VWS V14.00,2013-05-24 02:33:00,
2013-05-23 22:38:00,60.9,58.6,29.67,West,276,0.0,0.0,92,0.00,,,1.01,0.00,VWS V14.00,2013-05-24 02:38:00,
2013-05-23 22:43:00,60.9,58.6,29.67,West,276,0.0,0.0,92,0.00,,,1.01,0.00,VWS V14.00,2013-05-24 02:43:00,
2013-05-23 22:48:00,60.9,58.6,29.68,West,276,0.0,1.0,92,0.00,,,1.01,0.00,VWS V14.00,2013-05-24 02:48:00,
2013-05-23 22:53:00,60.8,58.5,29.67,West,276,0.0,0.0,92,0.00,,,1.01,0.00,VWS V14.00,2013-05-24 02:53:00,
2013-05-23 22:58:00,60.8,58.5,29.68,West,276,0.0,0.0,92,0.00,,,1.01,0.00,VWS V14.00,2013-05-24 02:58:00,
2013-05-23 23:03:00,60.7,58.7,29.67,West,276,0.0,0.0,93,0.00,,,1.01,0.00,VWS V14.00,2013-05-24 03:03:00,
2013-05-23 23:08:00,60.7,58.7,29.67,West,276,0.0,0.0,93,0.00,,,1.01,0.00,VWS V14.00,2013-05-24 03:08:00,
2013-05-23 23:13:00,60.7,58.7,29.68,West,276,0.0,0.0,93,0.00,,,1.01,0.00,VWS V14.00,2013-05-24 03:13:00,
2013-05-23 23:18:00,60.6,58.6,29.67,West,276,0.0,0.0,93,0.00,,,1.01,0.00,VWS V14.00,2013-05-24 03:18:00,
2013-05-23 23:23:00,60.5,58.5,29.67,West,276,0.0,1.0,93,0.00,,,1.01,0.00,VWS V14.00,2013-05-24 03:23:00,
2013-05-23 23:28:00,60.3,58.3,29.67,West,276,0.0,0.0,93,0.00,,,1.01,0.00,VWS V14.00,2013-05-24 03:28:00,
2013-05-23 23:33:00,60.2,58.2,29.67,West,276,0.0,0.0,93,0.00,,,1.01,0.00,VWS V14.00,2013-05-24 03:33:00,
2013-05-23 23:38:00,60.1,58.1,29.67,West,276,0.0,0.0,93,0.00,,,1.01,0.00,VWS V14.00,2013-05-24 03:38:00,
2013-05-23 23:43:00,60.0,58.0,29.67,West,276,2.0,2.0,93,0.00,,,1.01,0.00,VWS V14.00,2013-05-24 03:43:00,
2013-05-23 23:48:00,60.0,58.0,29.67,West,276,1.0,3.0,93,0.00,,,1.01,0.00,VWS V14.00,2013-05-24 03:48:00,
2013-05-23 23:53:00,59.9,57.9,29.67,West,276,0.0,1.0,93,0.00,,,1.01,0.00,VWS V14.00,2013-05-24 03:53:00,
2013-05-23 23:58:00,59.8,57.8,29.67,West,276,0.0,1.0,93,0.00,,,1.01,0.00,VWS V14.00,2013-05-24 03:58:00,